Time,TemperatureF,DewpointF,PressureIn,WindDirection,WindDirectionDegrees,WindSpeedMPH,WindSpeedGustMPH,Humidity,HourlyPrecipIn,Conditions,Clouds,dailyrainin,SolarRadiationWatts/m^2,SoftwareType,DateUTC
2013-02-16 00:21:00,14.0,9.0,-100.00,ESE,114,3.0,4.0,80,0.00,,,0.03,0.000000,,2013-02-16 07:21:00,
2013-02-16 00:31:00,14.0,9.0,-100.00,ESE,114,3.0,4.0,80,0.00,,,0.03,0.000000,,2013-02-16 07:31:00,
2013-02-16 00:42:00,14.0,9.0,-100.00,ESE,114,3.0,4.0,80,0.00,,,0.03,0.000000,,2013-02-16 07:42:00,
2013-02-16 00:52:00,14.0,9.0,-100.00,ESE,114,3.0,4.0,80,0.00,,,0.03,0.000000,,2013-02-16 07:52:00,
2013-02-16 01:21:00,12.0,7.0,-100.00,ESE,116,2.0,3.0,80,0.00,,,0.03,0.000000,,2013-02-16 08:21:00,
2013-02-16 01:31:00,12.0,7.0,-100.00,ESE,116,2.0,3.0,80,0.00,,,0.03,0.000000,,2013-02-16 08:31:00,
2013-02-16 01:41:00,12.0,7.0,-100.00,ESE,116,2.0,3.0,80,0.00,,,0.03,0.000000,,2013-02-16 08:41:00,
2013-02-16 01:52:00,12.0,7.0,-100.00,ESE,116,2.0,3.0,80,0.00,,,0.03,0.000000,,2013-02-16 08:52:00,
2013-02-16 02:21:00,14.0,8.0,-100.00,ESE,114,3.0,5.0,78,0.00,,,0.03,0.000000,,2013-02-16 09:21:00,
2013-02-16 02:31:00,14.0,8.0,-100.00,ESE,114,3.0,5.0,78,0.00,,,0.03,0.000000,,2013-02-16 09:31:00,
2013-02-16 02:42:00,14.0,8.0,-100.00,ESE,114,3.0,5.0,78,0.00,,,0.03,0.000000,,2013-02-16 09:42:00,
2013-02-16 02:51:00,14.0,8.0,-100.00,ESE,114,3.0,5.0,78,0.00,,,0.03,0.000000,,2013-02-16 09:51:00,
2013-02-16 03:21:00,14.0,8.0,-100.00,SE,129,3.0,5.0,77,0.00,,,0.03,1.000000,,2013-02-16 10:21:00,
2013-02-16 03:31:00,14.0,8.0,-100.00,SE,129,3.0,5.0,77,0.00,,,0.03,1.000000,,2013-02-16 10:31:00,
2013-02-16 03:41:00,14.0,8.0,-100.00,SE,129,3.0,5.0,77,0.00,,,0.03,1.000000,,2013-02-16 10:41:00,
2013-02-16 03:51:00,14.0,8.0,-100.00,SE,129,3.0,5.0,77,0.00,,,0.03,1.000000,,2013-02-16 10:51:00,
2013-02-16 04:22:00,14.0,8.0,-100.00,ESE,102,3.0,5.0,77,0.00,,,0.03,0.000000,,2013-02-16 11:22:00,
2013-02-16 04:31:00,14.0,8.0,-100.00,ESE,102,3.0,5.0,77,0.00,,,0.03,0.000000,,2013-02-16 11:31:00,
2013-02-16 04:42:00,14.0,8.0,-100.00,ESE,102,3.0,5.0,77,0.00,,,0.03,0.000000,,2013-02-16 11:42:00,
2013-02-16 04:52:00,14.0,8.0,-100.00,ESE,102,3.0,5.0,77,0.00,,,0.03,0.000000,,2013-02-16 11:52:00,
2013-02-16 05:22:00,14.0,8.0,-100.00,East,101,2.0,5.0,78,0.00,,,-99.99,0.000000,,2013-02-16 12:22:00,
2013-02-16 05:32:00,14.0,8.0,-100.00,East,101,2.0,5.0,78,0.00,,,-99.99,0.000000,,2013-02-16 12:32:00,
2013-02-16 05:42:00,14.0,8.0,-100.00,East,101,2.0,5.0,78,0.00,,,-99.99,0.000000,,2013-02-16 12:42:00,
2013-02-16 05:52:00,14.0,8.0,-100.00,East,101,2.0,5.0,78,0.00,,,-99.99,0.000000,,2013-02-16 12:52:00,
2013-02-16 06:21:00,13.0,7.0,-100.00,South,170,2.0,5.0,76,0.00,,,0.03,0.000000,,2013-02-16 13:21:00,
2013-02-16 06:31:00,13.0,7.0,-100.00,South,170,2.0,5.0,76,0.00,,,0.03,0.000000,,2013-02-16 13:31:00,
2013-02-16 06:41:00,13.0,7.0,-100.00,South,170,2.0,5.0,76,0.00,,,0.03,0.000000,,2013-02-16 13:41:00,
2013-02-16 06:51:00,13.0,7.0,-100.00,South,170,2.0,5.0,76,0.00,,,0.03,0.000000,,2013-02-16 13:51:00,
2013-02-16 07:21:00,13.0,7.0,-100.00,SSE,166,3.0,5.0,77,0.00,,,0.03,1.000000,,2013-02-16 14:21:00,
2013-02-16 07:32:00,13.0,7.0,-100.00,SSE,166,3.0,5.0,77,0.00,,,0.03,1.000000,,2013-02-16 14:32:00,
2013-02-16 07:41:00,13.0,7.0,-100.00,SSE,166,3.0,5.0,77,0.00,,,0.03,1.000000,,2013-02-16 14:41:00,
2013-02-16 07:52:00,13.0,7.0,-100.00,SSE,166,3.0,5.0,77,0.00,,,0.03,1.000000,,2013-02-16 14:52:00,
2013-02-16 08:21:00,20.0,11.0,-100.00,SE,132,3.0,5.0,66,0.00,,,0.03,69.000000,,2013-02-16 15:21:00,
2013-02-16 08:31:00,20.0,11.0,-100.00,SE,132,3.0,5.0,66,0.00,,,0.03,69.000000,,2013-02-16 15:31:00,
2013-02-16 08:41:00,20.0,11.0,-100.00,SE,132,3.0,5.0,66,0.00,,,0.03,69.000000,,2013-02-16 15:41:00,
2013-02-16 08:51:00,20.0,11.0,-100.00,SE,132,3.0,5.0,66,0.00,,,0.03,69.000000,,2013-02-16 15:51:00,
2013-02-16 09:21:00,23.0,11.0,-100.00,East,99,4.0,5.0,59,0.00,,,0.03,255.000000,,2013-02-16 16:21:00,
2013-02-16 09:32:00,23.0,11.0,-100.00,East,99,4.0,5.0,59,0.00,,,0.03,255.000000,,2013-02-16 16:32:00,
2013-02-16 09:41:00,23.0,11.0,-100.00,East,99,4.0,5.0,59,0.00,,,0.03,255.000000,,2013-02-16 16:41:00,
2013-02-16 09:51:00,23.0,11.0,-100.00,East,99,4.0,5.0,59,0.00,,,0.03,255.000000,,2013-02-16 16:51:00,
2013-02-16 10:21:00,26.0,12.0,-100.00,SSE,155,4.0,8.0,56,0.01,,,0.04,394.000000,,2013-02-16 17:21:00,
2013-02-16 10:32:00,26.0,12.0,-100.00,SSE,155,4.0,8.0,56,0.01,,,0.04,394.000000,,2013-02-16 17:32:00,
2013-02-16 10:41:00,26.0,12.0,-100.00,SSE,155,4.0,8.0,56,0.01,,,0.04,394.000000,,2013-02-16 17:41:00,
2013-02-16 10:52:00,26.0,12.0,-100.00,SSE,155,4.0,8.0,56,0.01,,,0.04,394.000000,,2013-02-16 17:52:00,
2013-02-16 11:21:00,30.0,12.0,-100.00,SSE,152,6.0,9.0,47,0.02,,,0.06,594.000000,,2013-02-16 18:21:00,
2013-02-16 11:33:00,30.0,12.0,-100.00,SSE,152,6.0,9.0,47,0.02,,,0.06,594.000000,,2013-02-16 18:33:00,
2013-02-16 11:42:00,30.0,12.0,-100.00,SSE,152,6.0,9.0,47,0.02,,,0.06,594.000000,,2013-02-16 18:42:00,
2013-02-16 11:51:00,30.0,12.0,-100.00,SSE,152,6.0,9.0,47,0.02,,,0.06,594.000000,,2013-02-16 18:51:00,
2013-02-16 12:21:00,29.0,12.0,-100.00,SSE,155,7.0,10.0,49,0.03,,,0.09,689.000000,,2013-02-16 19:21:00,
2013-02-16 12:31:00,29.0,12.0,-100.00,SSE,155,7.0,10.0,49,0.03,,,0.09,689.000000,,2013-02-16 19:31:00,
2013-02-16 12:42:00,29.0,12.0,-100.00,SSE,155,7.0,10.0,49,0.03,,,0.09,689.000000,,2013-02-16 19:42:00,
2013-02-16 12:52:00,29.0,12.0,-100.00,SSE,155,7.0,10.0,49,0.03,,,0.09,689.000000,,2013-02-16 19:52:00,
2013-02-16 13:21:00,30.0,12.0,-100.00,SSE,155,8.0,10.0,47,0.03,,,0.11,721.000000,,2013-02-16 20:21:00,
2013-02-16 13:32:00,30.0,12.0,-100.00,SSE,155,8.0,10.0,47,0.03,,,0.11,721.000000,,2013-02-16 20:32:00,
2013-02-16 13:42:00,30.0,12.0,-100.00,SSE,155,8.0,10.0,47,0.03,,,0.11,721.000000,,2013-02-16 20:42:00,
2013-02-16 13:52:00,30.0,12.0,-100.00,SSE,155,8.0,10.0,47,0.03,,,0.11,721.000000,,2013-02-16 20:52:00,
2013-02-16 14:21:00,32.0,12.0,-100.00,SSE,159,7.0,11.0,43,0.03,,,0.13,690.000000,,2013-02-16 21:21:00,
2013-02-16 14:31:00,32.0,12.0,-100.00,SSE,159,7.0,11.0,43,0.03,,,0.13,690.000000,,2013-02-16 21:31:00,
2013-02-16 14:41:00,32.0,12.0,-100.00,SSE,159,7.0,11.0,43,0.03,,,0.13,690.000000,,2013-02-16 21:41:00,
2013-02-16 14:52:00,32.0,12.0,-100.00,SSE,159,7.0,11.0,43,0.03,,,0.13,690.000000,,2013-02-16 21:52:00,
2013-02-16 15:21:00,33.0,12.0,-100.00,SSE,155,6.0,10.0,42,0.00,,,0.12,598.000000,,2013-02-16 22:21:00,
2013-02-16 15:32:00,33.0,12.0,-100.00,SSE,155,6.0,10.0,42,0.00,,,0.12,598.000000,,2013-02-16 22:32:00,
2013-02-16 15:42:00,33.0,12.0,-100.00,SSE,155,6.0,10.0,42,0.00,,,0.12,598.000000,,2013-02-16 22:42:00,
2013-02-16 15:51:00,33.0,12.0,-100.00,SSE,155,6.0,10.0,42,0.00,,,0.12,598.000000,,2013-02-16 22:51:00,
2013-02-16 16:21:00,30.0,10.0,-100.00,SSE,161,7.0,10.0,43,0.00,,,0.12,447.000000,,2013-02-16 23:21:00,
2013-02-16 16:31:00,30.0,10.0,-100.00,SSE,161,7.0,10.0,43,0.00,,,0.12,447.000000,,2013-02-16 23:31:00,
2013-02-16 16:42:00,30.0,10.0,-100.00,SSE,161,7.0,10.0,43,0.00,,,0.12,447.000000,,2013-02-16 23:42:00,
2013-02-16 16:52:00,30.0,10.0,-100.00,SSE,161,7.0,10.0,43,0.00,,,0.12,447.000000,,2013-02-16 23:52:00,
2013-02-16 17:21:00,28.0,10.0,-100.00,SSE,161,5.0,10.0,46,0.00,,,0.12,260.000000,,2013-02-17 00:21:00,
2013-02-16 17:31:00,28.0,10.0,-100.00,SSE,161,5.0,10.0,46,0.00,,,0.12,260.000000,,2013-02-17 00:31:00,
2013-02-16 17:41:00,28.0,10.0,-100.00,SSE,161,5.0,10.0,46,0.00,,,0.12,260.000000,,2013-02-17 00:41:00,
2013-02-16 17:51:00,28.0,10.0,-100.00,SSE,161,5.0,10.0,46,0.00,,,0.12,260.000000,,2013-02-17 00:51:00,
2013-02-16 18:21:00,24.0,9.0,-100.00,SSW,205,5.0,9.0,52,0.00,,,0.12,63.000000,,2013-02-17 01:21:00,
2013-02-16 18:31:00,24.0,9.0,-100.00,SSW,205,5.0,9.0,52,0.00,,,0.12,63.000000,,2013-02-17 01:31:00,
2013-02-16 18:41:00,24.0,9.0,-100.00,SSW,205,5.0,9.0,52,0.00,,,0.12,63.000000,,2013-02-17 01:41:00,
2013-02-16 18:52:00,24.0,9.0,-100.00,SSW,205,5.0,9.0,52,0.00,,,0.12,63.000000,,2013-02-17 01:52:00,
2013-02-16 19:21:00,23.0,6.0,-100.00,SSE,168,3.0,7.0,47,0.00,,,0.12,1.000000,,2013-02-17 02:21:00,
2013-02-16 19:31:00,23.0,6.0,-100.00,SSE,168,3.0,7.0,47,0.00,,,0.12,1.000000,,2013-02-17 02:31:00,
2013-02-16 19:41:00,23.0,6.0,-100.00,SSE,168,3.0,7.0,47,0.00,,,0.12,1.000000,,2013-02-17 02:41:00,
2013-02-16 19:52:00,23.0,6.0,-100.00,SSE,168,3.0,7.0,47,0.00,,,0.12,1.000000,,2013-02-17 02:52:00,
2013-02-16 20:11:00,21.0,4.0,-100.00,SSE,149,3.0,4.0,47,0.00,,,0.12,0.000000,,2013-02-17 03:11:00,
2013-02-16 20:21:00,21.0,4.0,-100.00,SSE,149,3.0,4.0,47,0.00,,,0.12,0.000000,,2013-02-17 03:21:00,
2013-02-16 20:31:00,21.0,4.0,-100.00,SSE,149,3.0,4.0,47,0.00,,,0.12,0.000000,,2013-02-17 03:31:00,
2013-02-16 20:42:00,21.0,4.0,-100.00,SSE,149,3.0,4.0,47,0.00,,,0.12,0.000000,,2013-02-17 03:42:00,
2013-02-16 20:51:00,21.0,4.0,-100.00,SSE,149,3.0,4.0,47,0.00,,,0.12,0.000000,,2013-02-17 03:51:00,
2013-02-16 21:21:00,22.0,2.0,-100.00,SW,223,6.0,9.0,41,0.00,,,0.12,0.000000,,2013-02-17 04:21:00,
2013-02-16 21:31:00,22.0,2.0,-100.00,SW,223,6.0,9.0,41,0.00,,,0.12,0.000000,,2013-02-17 04:31:00,
2013-02-16 21:41:00,22.0,2.0,-100.00,SW,223,6.0,9.0,41,0.00,,,0.12,0.000000,,2013-02-17 04:41:00,
2013-02-16 21:51:00,22.0,2.0,-100.00,SW,223,6.0,9.0,41,0.00,,,0.12,0.000000,,2013-02-17 04:51:00,
2013-02-16 22:22:00,19.0,3.0,-100.00,SSE,152,2.0,7.0,48,0.00,,,0.12,1.000000,,2013-02-17 05:22:00,
2013-02-16 22:32:00,19.0,3.0,-100.00,SSE,152,2.0,7.0,48,0.00,,,0.12,1.000000,,2013-02-17 05:32:00,
2013-02-16 22:42:00,19.0,3.0,-100.00,SSE,152,2.0,7.0,48,0.00,,,0.12,1.000000,,2013-02-17 05:42:00,
2013-02-16 22:52:00,19.0,3.0,-100.00,SSE,152,2.0,7.0,48,0.00,,,0.12,1.000000,,2013-02-17 05:52:00,
2013-02-16 23:21:00,23.0,3.0,-100.00,South,191,4.0,7.0,42,0.00,,,-99.99,0.000000,,2013-02-17 06:21:00,
2013-02-16 23:31:00,23.0,3.0,-100.00,South,191,4.0,7.0,42,0.00,,,-99.99,0.000000,,2013-02-17 06:31:00,
2013-02-16 23:41:00,23.0,3.0,-100.00,South,191,4.0,7.0,42,0.00,,,-99.99,0.000000,,2013-02-17 06:41:00,
2013-02-16 23:51:00,23.0,3.0,-100.00,South,191,4.0,7.0,42,0.00,,,-99.99,0.000000,,2013-02-17 06:51:00,